Location: Newark
(44.3681°N, 100.3364°W)
Time: 15:25:21
(UTC+00:00)

Vanguard 1 - Pass Details

Date: 22 February 2020
Orbit: 649 x 3834 km, 34.2° (Epoch: 30 March)

Event Time Altitude Azimuth Distance (km) Brightness Sun altitude
Rises 12:25:35 0° 204° (SSW) 7,830 14.4 -12.4°
Reaches altitude 10° 12:32:07 10° 194° (SSW) 6,920 14.3 -11.2°
Maximum altitude 12:49:54 29° 145° (SE) 5,094 14.2 -8.0°
Drops below altitude 10° 13:04:04 10° 94° (E) 5,572 15.8 -5.5°
Sets 13:08:27 0° 84° (E) 6,163 16.0 -4.8°
